GJLL EGHH-EGPD

Flight info

Callsign GJLL
Flight time N/A
Altitude 43000
Route SAM Q41 SILVA UM605 DTY DCT SAPCO UN57 POL UN601 RIBEL DCT GRICE DCT FINDO P600 NAXIL
Aircraft C25C/M-SDE2E3FGHRWXY/LB1

Departure

Time 2026-04-29 19:30
Airport Bournemouth Airport (EGHH)

Arrival

Time N/A
Airport Aberdeen International Airport (EGPD)
Time Latitude Longitude Altitude Speed Heading
2026-04-29 19:23 50.77803 -1.83376 36 ft 0 kts 76°
2026-04-29 19:27 50.77812 -1.83361 36 ft 8 kts 25°
2026-04-29 19:27 50.77788 -1.83437 36 ft 16 kts 208°
2026-04-29 19:27 50.77633 -1.83481 37 ft 28 kts 186°
2026-04-29 19:28 50.77578 -1.83781 37 ft 36 kts 275°
2026-04-29 19:28 50.77640 -1.84213 38 ft 44 kts 287°
2026-04-29 19:28 50.77720 -1.84690 39 ft 46 kts 281°
2026-04-29 19:28 50.77826 -1.85084 42 ft 22 kts 303°
2026-04-29 19:29 50.77880 -1.85014 42 ft 38 kts 76°
2026-04-29 19:29 50.78030 -1.84115 35 ft 127 kts 75°
2026-04-29 19:29 50.78302 -1.82405 125 ft 191 kts 77°
2026-04-29 19:29 50.78643 -1.80168 210 ft 234 kts 76°
2026-04-29 19:30 50.79013 -1.77526 419 ft 253 kts 77°
2026-04-29 19:30 50.79275 -1.75736 850 ft 239 kts 68°
2026-04-29 19:30 50.80499 -1.74430 2522 ft 231 kts 21°
2026-04-29 19:30 50.81998 -1.73718 3369 ft 219 kts 37°
2026-04-29 19:31 50.82975 -1.71897 3688 ft 225 kts 73°
2026-04-29 19:31 50.83451 -1.69463 4046 ft 240 kts 76°
2026-04-29 19:31 50.84128 -1.66822 4436 ft 281 kts 69°
2026-04-29 19:31 50.85411 -1.63279 6536 ft 270 kts 64°
2026-04-29 19:32 50.86040 -1.61596 7797 ft 257 kts 65°
2026-04-29 19:32 50.86885 -1.59206 9597 ft 247 kts 66°
2026-04-29 19:32 50.87728 -1.56748 10686 ft 260 kts 66°
2026-04-29 19:32 50.88624 -1.54194 11773 ft 270 kts 66°
2026-04-29 19:33 50.89552 -1.51552 12899 ft 278 kts 65°
2026-04-29 19:33 50.90511 -1.48844 14064 ft 285 kts 66°
2026-04-29 19:33 50.91477 -1.46077 15121 ft 290 kts 65°
2026-04-29 19:33 50.92452 -1.43299 16203 ft 293 kts 66°
2026-04-29 19:34 50.93445 -1.40459 17336 ft 295 kts 66°
2026-04-29 19:34 50.94453 -1.37617 18508 ft 297 kts 63°
2026-04-29 19:34 50.95906 -1.35219 19550 ft 306 kts 42°
2026-04-29 19:34 50.97818 -1.33669 20623 ft 313 kts 21°
2026-04-29 19:35 50.99927 -1.32832 21742 ft 311 kts 18°
2026-04-29 19:35 51.02025 -1.32060 22893 ft 305 kts 17°
2026-04-29 19:35 51.04072 -1.31323 24031 ft 298 kts 17°
2026-04-29 19:35 51.06034 -1.30588 25039 ft 288 kts 17°
2026-04-29 19:36 51.07947 -1.29862 26085 ft 276 kts 18°
2026-04-29 19:36 51.09769 -1.29178 27171 ft 262 kts 18°
2026-04-29 19:36 51.11489 -1.28539 28283 ft 245 kts 18°
2026-04-29 19:36 51.13075 -1.27944 29416 ft 224 kts 19°
2026-04-29 19:37 51.14506 -1.27409 30509 ft 197 kts 20°
2026-04-29 19:37 51.15352 -1.27092 31078 ft 182 kts 20°
2026-04-29 19:37 51.17072 -1.26421 31257 ft 206 kts 20°
2026-04-29 19:37 51.18463 -1.25902 31705 ft 204 kts 19°
2026-04-29 19:38 51.19833 -1.25388 32188 ft 200 kts 19°
2026-04-29 19:38 51.21173 -1.24886 32656 ft 195 kts 19°
2026-04-29 19:38 51.22569 -1.24353 32231 ft 234 kts 18°
2026-04-29 19:38 51.24486 -1.23969 31219 ft 311 kts
2026-04-29 19:39 51.26739 -1.24153 30933 ft 343 kts
2026-04-29 19:39 51.29218 -1.24057 30646 ft 371 kts
2026-04-29 19:39 51.31800 -1.23459 30705 ft 378 kts 18°
2026-04-29 19:39 51.34264 -1.21980 30958 ft 380 kts 28°
2026-04-29 19:40 51.36648 -1.20097 31213 ft 384 kts 30°
2026-04-29 19:40 51.39081 -1.18263 31473 ft 389 kts 26°
2026-04-29 19:40 51.41646 -1.16786 31750 ft 395 kts 18°
2026-04-29 19:40 51.44345 -1.15822 32010 ft 400 kts 13°
2026-04-29 19:41 51.47099 -1.15041 32273 ft 403 kts 13°
2026-04-29 19:41 51.49849 -1.14122 32535 ft 404 kts 17°
2026-04-29 19:41 51.52563 -1.12967 32803 ft 405 kts 18°
2026-04-29 19:41 51.55300 -1.11846 33073 ft 407 kts 16°
2026-04-29 19:42 51.58066 -1.10823 33342 ft 408 kts 15°
2026-04-29 19:42 51.59902 -1.10158 33521 ft 408 kts 15°
2026-04-29 19:42 51.63603 -1.08731 33886 ft 409 kts 17°
2026-04-29 19:42 51.66371 -1.07642 34163 ft 409 kts 17°
2026-04-29 19:43 51.69146 -1.06576 34413 ft 409 kts 16°
2026-04-29 19:43 51.71880 -1.05530 34650 ft 409 kts 16°
2026-04-29 19:43 51.74654 -1.04462 34891 ft 408 kts 16°
2026-04-29 19:43 51.77412 -1.03389 35138 ft 408 kts 16°
2026-04-29 19:44 51.80170 -1.02318 35403 ft 407 kts 16°
2026-04-29 19:44 51.82954 -1.01496 35650 ft 408 kts
2026-04-29 19:44 51.85806 -1.01318 35899 ft 410 kts
2026-04-29 19:44 51.88645 -1.01798 36152 ft 411 kts 352°
2026-04-29 19:45 51.91448 -1.02721 36412 ft 410 kts 351°
2026-04-29 19:45 51.94277 -1.03630 36677 ft 409 kts 351°
2026-04-29 19:45 51.97043 -1.04517 36935 ft 408 kts 351°
2026-04-29 19:45 51.99826 -1.05426 37202 ft 407 kts 351°
2026-04-29 19:46 52.02562 -1.06323 37467 ft 406 kts 351°
2026-04-29 19:46 52.05340 -1.07230 37771 ft 405 kts 351°
2026-04-29 19:46 52.08101 -1.08129 38146 ft 401 kts 351°
2026-04-29 19:46 52.10810 -1.09017 38707 ft 393 kts 351°
2026-04-29 19:47 52.13472 -1.09890 39215 ft 386 kts 351°
2026-04-29 19:47 52.16087 -1.10748 39670 ft 378 kts 351°
2026-04-29 19:47 52.18612 -1.11820 40134 ft 373 kts 342°
2026-04-29 19:47 52.20998 -1.13381 40598 ft 366 kts 339°
2026-04-29 19:48 52.23307 -1.14932 41067 ft 360 kts 339°
2026-04-29 19:48 52.24861 -1.15970 41385 ft 355 kts 339°
2026-04-29 19:48 52.27851 -1.17975 42027 ft 346 kts 339°
2026-04-29 19:48 52.30054 -1.19464 42520 ft 339 kts 339°
2026-04-29 19:49 52.32213 -1.20916 43019 ft 331 kts 339°
2026-04-29 19:49 52.34336 -1.22342 43275 ft 332 kts 338°
2026-04-29 19:49 52.36493 -1.23797 43310 ft 339 kts 338°
2026-04-29 19:50 52.40954 -1.26817 43327 ft 354 kts 338°
2026-04-29 19:50 52.45609 -1.29967 43225 ft 369 kts 338°
2026-04-29 19:51 52.50446 -1.33254 43193 ft 383 kts 338°
2026-04-29 19:51 52.55471 -1.36573 43174 ft 395 kts 341°
2026-04-29 19:52 52.60716 -1.39716 43173 ft 406 kts 340°
2026-04-29 19:52 52.66086 -1.42975 43171 ft 416 kts 341°
2026-04-29 19:53 52.71545 -1.46279 43170 ft 424 kts 341°
2026-04-29 19:53 52.77134 -1.49679 43358 ft 432 kts 341°
2026-04-29 19:54 52.85687 -1.54895 43351 ft 441 kts 341°
2026-04-29 19:54 52.91475 -1.58439 43351 ft 446 kts 341°
2026-04-29 19:55 52.97339 -1.62038 43357 ft 450 kts 341°
2026-04-29 19:55 53.03199 -1.65646 43357 ft 454 kts 341°
2026-04-29 19:56 53.09153 -1.69324 43362 ft 457 kts 341°
2026-04-29 19:56 53.15137 -1.73030 43362 ft 461 kts 341°
2026-04-29 19:57 53.20148 -1.76143 43365 ft 463 kts 340°
2026-04-29 19:57 53.27231 -1.80553 43369 ft 466 kts 341°
2026-04-29 19:58 53.33313 -1.84356 43369 ft 467 kts 341°
2026-04-29 19:58 53.39421 -1.88183 43366 ft 469 kts 340°
2026-04-29 19:59 53.45539 -1.92032 43372 ft 470 kts 340°
2026-04-29 19:59 53.51677 -1.95904 43369 ft 472 kts 340°
2026-04-29 20:00 53.57823 -1.99792 43377 ft 472 kts 340°
2026-04-29 20:00 53.63960 -2.03686 43394 ft 473 kts 340°
2026-04-29 20:01 53.70126 -2.07614 43402 ft 474 kts 340°
2026-04-29 20:01 53.76280 -2.11623 43400 ft 475 kts 339°
2026-04-29 20:02 53.82419 -2.15805 43394 ft 475 kts 339°
2026-04-29 20:02 53.87528 -2.19286 43394 ft 476 kts 339°
2026-04-29 20:03 53.94668 -2.24190 43401 ft 476 kts 339°
2026-04-29 20:03 54.00824 -2.28418 43401 ft 477 kts 339°
2026-04-29 20:04 54.07061 -2.32253 43406 ft 477 kts 342°
2026-04-29 20:04 54.13310 -2.36055 43411 ft 477 kts 342°
2026-04-29 20:05 54.19569 -2.39862 43416 ft 477 kts 342°
2026-04-29 20:05 54.25825 -2.43682 43414 ft 477 kts 342°
2026-04-29 20:06 54.32041 -2.47491 43418 ft 477 kts 342°
2026-04-29 20:06 54.38300 -2.51337 43420 ft 477 kts 342°
2026-04-29 20:07 54.44550 -2.55191 43419 ft 477 kts 341°
2026-04-29 20:07 54.50802 -2.59059 43414 ft 477 kts 342°
2026-04-29 20:08 54.55988 -2.62276 43421 ft 477 kts 341°
2026-04-29 20:08 54.63281 -2.66817 43423 ft 476 kts 341°
2026-04-29 20:09 54.69473 -2.70683 43421 ft 476 kts 341°
2026-04-29 20:09 54.75695 -2.74583 43416 ft 476 kts 341°
2026-04-29 20:10 54.81924 -2.78500 43407 ft 475 kts 341°
2026-04-29 20:10 54.88138 -2.82420 43407 ft 475 kts 341°
2026-04-29 20:11 54.94343 -2.86348 43406 ft 474 kts 341°
2026-04-29 20:11 55.00552 -2.90290 43416 ft 473 kts 341°
2026-04-29 20:12 55.06736 -2.94231 43410 ft 473 kts 341°
2026-04-29 20:12 55.12913 -2.98179 43410 ft 473 kts 341°
2026-04-29 20:13 55.18042 -3.01468 43411 ft 472 kts 341°
2026-04-29 20:13 55.25213 -3.06080 43425 ft 472 kts 341°
2026-04-29 20:14 55.31375 -3.10058 43413 ft 471 kts 341°
2026-04-29 20:14 55.37536 -3.14048 43419 ft 471 kts 341°
2026-04-29 20:15 55.43683 -3.18044 43415 ft 471 kts 341°
2026-04-29 20:15 55.49826 -3.22049 43418 ft 470 kts 341°
2026-04-29 20:16 55.54937 -3.25391 43417 ft 470 kts 341°
2026-04-29 20:16 55.61071 -3.29416 43417 ft 470 kts 340°
2026-04-29 20:17 55.67209 -3.33456 43415 ft 469 kts 340°
2026-04-29 20:17 55.73332 -3.37500 43414 ft 469 kts 340°
2026-04-29 20:18 55.79409 -3.41526 43416 ft 469 kts 340°
2026-04-29 20:18 55.85518 -3.45589 43423 ft 469 kts 340°
2026-04-29 20:19 55.91626 -3.49664 43421 ft 468 kts 340°
2026-04-29 20:19 55.97733 -3.53751 43425 ft 468 kts 340°
2026-04-29 20:20 56.03829 -3.57844 43417 ft 468 kts 340°
2026-04-29 20:20 56.09983 -3.61638 43417 ft 467 kts 348°
2026-04-29 20:21 56.16404 -3.62910 43419 ft 464 kts
2026-04-29 20:21 56.22768 -3.61240 43440 ft 462 kts 17°
2026-04-29 20:22 56.28625 -3.56802 43446 ft 459 kts 31°
2026-04-29 20:22 56.33873 -3.50284 43449 ft 458 kts 37°
2026-04-29 20:23 56.39084 -3.43691 43462 ft 458 kts 35°
2026-04-29 20:23 56.44339 -3.37171 43458 ft 458 kts 36°
2026-04-29 20:24 56.49590 -3.30643 43459 ft 458 kts 35°
2026-04-29 20:24 56.54840 -3.24098 43458 ft 458 kts 35°
2026-04-29 20:25 56.60084 -3.17532 43459 ft 458 kts 36°
2026-04-29 20:25 56.65320 -3.10957 43462 ft 458 kts 36°
2026-04-29 20:26 56.70164 -3.04854 43461 ft 458 kts 36°
2026-04-29 20:26 56.72785 -3.01542 43462 ft 458 kts 36°